Weather History for Perry, IA

Change the Weather History Date:

Thursday, January 31, 2013

  Actual Average Record
Temperature  
Mean Temperature 5 °F -  
Max Temperature 11 °F 29 °F 58 °F (2012)
Min Temperature -1 °F 8 °F -20 °F (1950)
Degree Days  
Heating Degree Days 60    
Moisture  
Dew Point -3 °F    
Average Humidity 72    
Maximum Humidity 83    
Minimum Humidity 65    
Precipitation  
Precipitation 0.00 in - - ()
Sea Level Pressure  
Sea Level Pressure 30.12 in    
Wind  
Wind Speed 16 mph (NW)    
Max Wind Speed 23 mph    
Max Gust Speed 32 mph    
Visibility 9 miles    
Events      
Averages and records for this station are not official NWS values.
T = Trace of Precipitation, MM = Missing Value Source: NWS Daily Summary

Daily Weather History Graph

Daily Weather History Graph

Search for Another Location

Airport:

Trip Planner

Search our weather history database for the weather conditions in past years. The results will help you decide how hot, cold, wet, or windy it might be!

Date:

Astronomy

Jan. 31, 2013 Rise Set
Actual Time 7:29 AM CST 5:31 PM CST
Civil Twilight 7:00 AM CST 6:00 PM CST
Nautical Twilight 6:26 AM CST 6:33 PM CST
Astronomical Twilight 5:54 AM CST 7:06 PM CST
Moon 10:39 PM CST (1/31) 9:24 AM CST (1/31)
Length of Visible Light 11h 00m
Length of Day
10h 01m
Waning Gibbous, 79% of the Moon is Illuminated
Jan 31
Waning Gibbous
Feb 3
Last Quarter
Feb 10
New
Feb 17
First Quarter
Feb 25
Full

Hourly Weather History & Observations

Time (CST) Temp. Windchill Dew Point Humidity Pressure Visibility Wind Dir Wind Speed Gust Speed Precip Events Conditions
12:15 AM 11.3 °F -4.9 °F 6.4 °F 81% 29.88 in 10.0 mi WNW 15.0 mph 19.6 mph N/A   Clear
12:35 AM 11.1 °F -3.9 °F 5.9 °F 80% 29.88 in 10.0 mi WNW 12.7 mph - N/A   Clear
12:55 AM 10.4 °F -4.1 °F 5.9 °F 82% 29.88 in 10.0 mi WNW 11.5 mph - N/A   Clear
1:15 AM 10.2 °F -5.0 °F 5.9 °F 83% 29.88 in 10.0 mi WNW 12.7 mph - N/A   Clear
1:35 AM 10.0 °F -6.5 °F 5.0 °F 80% 29.88 in 10.0 mi WNW 15.0 mph - N/A   Clear
1:55 AM 9.3 °F -6.1 °F 4.8 °F 82% 29.89 in 10.0 mi WNW 12.7 mph 18.4 mph N/A   Clear
2:15 AM 8.8 °F -7.5 °F 4.6 °F 83% 29.89 in 10.0 mi West 13.8 mph - N/A   Scattered Clouds
2:35 AM 8.6 °F -8.9 °F 3.9 °F 81% 29.90 in 10.0 mi WNW 16.1 mph - N/A   Scattered Clouds
2:55 AM 8.2 °F -8.2 °F 2.8 °F 79% 29.90 in 10.0 mi WNW 13.8 mph 19.6 mph N/A   Clear
3:15 AM 7.7 °F -8.9 °F 2.8 °F 81% 29.90 in 10.0 mi WNW 13.8 mph - N/A   Clear
3:35 AM 7.5 °F -10.3 °F 3.0 °F 82% 29.91 in 10.0 mi WNW 16.1 mph - N/A   Clear
3:55 AM 6.8 °F -12.4 °F 0.3 °F 75% 29.90 in 10.0 mi WNW 18.4 mph 21.9 mph N/A   Clear
4:15 AM 6.3 °F -14.1 °F -0.6 °F 73% 29.92 in 10.0 mi WNW 20.7 mph 25.3 mph N/A   Clear
4:35 AM 5.7 °F -12.0 °F -0.6 °F 75% 29.92 in 10.0 mi WNW 15.0 mph 23.0 mph N/A   Clear
4:55 AM 5.4 °F -11.1 °F -0.4 °F 77% 29.93 in 10.0 mi WNW 12.7 mph 20.7 mph N/A   Clear
5:15 AM 5.0 °F -13.6 °F -1.3 °F 75% 29.94 in 10.0 mi WNW 16.1 mph 23.0 mph N/A   Clear
5:35 AM 4.8 °F -13.2 °F -1.8 °F 74% 29.95 in 10.0 mi WNW 15.0 mph - N/A   Clear
5:55 AM 4.5 °F -14.9 °F -2.9 °F 72% 29.96 in 10.0 mi WNW 17.3 mph 24.2 mph N/A   Clear
6:15 AM 4.1 °F -14.7 °F -3.6 °F 70% 29.96 in 10.0 mi NW 16.1 mph - N/A   Mostly Cloudy
6:35 AM 4.1 °F -14.7 °F -3.1 °F 72% 29.97 in 10.0 mi NW 16.1 mph - N/A   Overcast
6:55 AM 3.4 °F -14.4 °F -3.8 °F 72% 29.98 in 10.0 mi NW 13.8 mph 24.2 mph N/A   Scattered Clouds
7:15 AM 3.6 °F -15.4 °F -3.8 °F 71% 29.98 in 10.0 mi NW 16.1 mph - N/A   Mostly Cloudy
7:35 AM 3.4 °F -15.0 °F -3.5 °F 73% 30.00 in 10.0 mi NW 15.0 mph - N/A   Overcast
7:55 AM 3.7 °F -16.4 °F -3.3 °F 73% 30.01 in 10.0 mi NW 18.4 mph - N/A   Overcast
8:15 AM 3.9 °F -17.1 °F -3.3 °F 72% 30.02 in 10.0 mi NW 20.7 mph 24.2 mph N/A   Mostly Cloudy
8:35 AM 3.9 °F -17.1 °F -3.5 °F 71% 30.04 in 10.0 mi NW 20.7 mph 25.3 mph N/A   Mostly Cloudy
8:55 AM 4.3 °F -13.9 °F -2.7 °F 73% 30.04 in 10.0 mi NW 15.0 mph - N/A   Mostly Cloudy
9:15 AM 4.6 °F -13.4 °F -2.9 °F 71% 30.05 in 10.0 mi NW 15.0 mph - N/A   Overcast
9:35 AM 4.5 °F -14.9 °F -2.9 °F 72% 30.06 in 10.0 mi NW 17.3 mph 23.0 mph N/A   Mostly Cloudy
9:55 AM 4.6 °F -14.0 °F -2.6 °F 72% 30.08 in 10.0 mi NW 16.1 mph 26.5 mph N/A   Scattered Clouds
10:15 AM 4.6 °F -16.2 °F -2.9 °F 71% 30.10 in 10.0 mi NW 20.7 mph 26.5 mph N/A   Mostly Cloudy
10:35 AM 4.6 °F -16.2 °F -3.1 °F 70% 30.11 in 10.0 mi NW 20.7 mph 28.8 mph N/A   Mostly Cloudy
10:55 AM 5.0 °F -14.7 °F -2.6 °F 71% 30.13 in 10.0 mi NW 18.4 mph 26.5 mph N/A   Overcast
11:15 AM 5.7 °F -14.3 °F -2.2 °F 70% 30.15 in 10.0 mi NW 19.6 mph 25.3 mph N/A   Overcast
11:35 AM 5.9 °F -13.5 °F -1.5 °F 72% 30.15 in 7.0 mi NW 18.4 mph 26.5 mph N/A   Overcast
11:55 AM 5.9 °F -14.1 °F -1.5 °F 72% 30.15 in 5.0 mi NW 19.6 mph 25.3 mph N/A   Haze
12:15 PM 6.1 °F -13.3 °F -1.8 °F 70% 30.15 in 7.0 mi NW 18.4 mph 24.2 mph N/A   Overcast
12:35 PM 6.4 °F -12.8 °F -1.7 °F 69% 30.16 in 5.0 mi NW 18.4 mph 26.5 mph N/A   Haze
12:55 PM 5.9 °F -14.1 °F -1.7 °F 71% 30.16 in 5.0 mi WNW 19.6 mph 25.3 mph N/A   Haze
1:15 PM 6.4 °F -13.8 °F -1.5 °F 70% 30.16 in 5.0 mi NW 20.7 mph 29.9 mph N/A   Haze
1:35 PM 6.8 °F -12.9 °F -1.8 °F 68% 30.17 in 7.0 mi NW 19.6 mph 28.8 mph N/A   Overcast
1:55 PM 6.8 °F -14.3 °F -1.8 °F 68% 30.17 in 7.0 mi WNW 23.0 mph 28.8 mph N/A   Overcast
2:15 PM 6.3 °F -14.1 °F -1.7 °F 70% 30.18 in 5.0 mi NW 20.7 mph 32.2 mph N/A   Haze
2:35 PM 5.7 °F -15.3 °F -3.1 °F 67% 30.19 in 5.0 mi WNW 21.9 mph 29.9 mph N/A   Haze
2:55 PM 5.4 °F -15.3 °F -3.1 °F 68% 30.20 in 7.0 mi NW 20.7 mph 31.1 mph N/A   Overcast
3:15 PM 5.5 °F -15.9 °F -3.5 °F 66% 30.21 in 10.0 mi NW 23.0 mph 28.8 mph N/A   Overcast
3:35 PM 5.4 °F -15.3 °F -4.0 °F 65% 30.21 in 10.0 mi NW 20.7 mph 29.9 mph N/A   Mostly Cloudy
3:55 PM 5.5 °F -15.0 °F -3.8 °F 65% 30.22 in 10.0 mi NW 20.7 mph - N/A   Mostly Cloudy
4:15 PM 5.4 °F -14.2 °F -3.5 °F 67% 30.23 in 10.0 mi NW 18.4 mph 29.9 mph N/A   Overcast
4:35 PM 5.4 °F -14.8 °F -3.6 °F 66% 30.24 in 10.0 mi NW 19.6 mph 24.2 mph N/A   Mostly Cloudy
4:55 PM 5.0 °F -14.2 °F -4.4 °F 65% 30.24 in 10.0 mi NW 17.3 mph 24.2 mph N/A   Mostly Cloudy
5:15 PM 4.6 °F -13.4 °F -4.2 °F 67% 30.25 in 10.0 mi NW 15.0 mph - N/A   Clear
5:35 PM 4.1 °F -14.7 °F -4.4 °F 68% 30.26 in 10.0 mi NW 16.1 mph - N/A   Clear
5:55 PM 3.7 °F -15.2 °F -4.5 °F 69% 30.27 in 10.0 mi WNW 16.1 mph 20.7 mph N/A   Scattered Clouds
6:15 PM 3.6 °F -15.4 °F -4.9 °F 68% 30.28 in 10.0 mi WNW 16.1 mph 20.7 mph N/A   Clear
6:35 PM 3.2 °F -14.6 °F -4.9 °F 69% 30.28 in 10.0 mi WNW 13.8 mph - N/A   Clear
6:55 PM 2.8 °F -15.0 °F -5.4 °F 68% 30.29 in 10.0 mi NW 13.8 mph 20.7 mph N/A   Clear
7:15 PM 2.3 °F -17.1 °F -5.6 °F 70% 30.30 in 10.0 mi WNW 16.1 mph 23.0 mph N/A   Clear
7:35 PM 2.1 °F -15.2 °F -5.8 °F 69% 30.30 in 10.0 mi WNW 12.7 mph 24.2 mph N/A   Clear
7:55 PM 1.8 °F -17.8 °F -6.0 °F 70% 30.31 in 10.0 mi WNW 16.1 mph 24.2 mph N/A   Clear
8:15 PM 1.4 °F -18.8 °F -6.2 °F 71% 30.32 in 10.0 mi WNW 17.3 mph 23.0 mph N/A   Clear
8:35 PM 1.0 °F -18.7 °F -6.2 °F 72% 30.33 in 10.0 mi WNW 16.1 mph 20.7 mph N/A   Clear
8:55 PM 0.5 °F -20.0 °F -6.7 °F 72% 30.33 in 10.0 mi NW 17.3 mph 24.2 mph N/A   Clear
9:15 PM 0.3 °F -17.5 °F -7.1 °F 71% 30.33 in 10.0 mi WNW 12.7 mph - N/A   Clear
9:35 PM -0.0 °F -20.1 °F -7.4 °F 71% 30.35 in 10.0 mi WNW 16.1 mph 24.2 mph N/A   Clear
9:55 PM -0.6 °F -22.5 °F -8.3 °F 70% 30.35 in 10.0 mi WNW 19.6 mph 25.3 mph N/A   Clear
10:15 PM -0.8 °F -20.3 °F -8.5 °F 70% 30.36 in 10.0 mi WNW 15.0 mph - N/A   Clear
10:35 PM -1.3 °F -18.7 °F -8.5 °F 72% 30.36 in 10.0 mi WNW 11.5 mph 18.4 mph N/A   Clear
10:55 PM -1.3 °F -20.3 °F -8.5 °F 72% 30.36 in 10.0 mi WNW 13.8 mph 18.4 mph N/A   Clear
11:15 PM -1.3 °F -21.0 °F -8.7 °F 71% 30.36 in 10.0 mi NW 15.0 mph 20.7 mph N/A   Clear
11:35 PM -1.7 °F -17.3 °F -8.7 °F 72% 30.36 in 10.0 mi NW 9.2 mph - N/A   Clear
11:55 PM -1.8 °F -18.5 °F -8.7 °F 73% 30.36 in 10.0 mi NW 10.4 mph 17.3 mph N/A   Clear